www.pogodaiklimat.ru

Погода и климат >> Архив погоды >> Япония >> Мацумото


ПОГОДА в Мацумото

  • Прогноз погоды в Мацумото
  • Монитор погоды в Мацумото

АРХИВ ПОГОДЫ в Мацумото

Время (UTC), дата Ветер
(напр.,м/с)
 
Видим.   Явления Облачность Т
(С)
Тd
(С)
f
(%)
Тe
(С)
Тes
(С)
Комфортность P
(гПа)
Po
(гПа)
Тmin
(С)
Tmax
(С)
R
(мм)
R24
(мм)
S
(см)
22 8.09 ЮВ 1 20 км н/о +23.1 +21.9 93 +31 +31 очень
душно
1008.5 940.8
23 8.09 В 1 20 км слаб. дождь н/о +24.1 +21.6 86 +31 +31 очень
душно
1009.2 941.7
00 9.09 В 1 20 км в посл. час дождь н/о +25.6 +21.3 77 +32 +32 очень
душно
1009.0 941.9 +22.4 1
01 9.09 СВ 2 17 км н/о +27.5 +20.6 66 +34 +34 очень
душно
1008.5 941.9
02 9.09 С 4 13 км н/о +29.3 +20.5 59 +36 +36 очень
душно
1007.8 941.6
03 9.09 С 2 17 км н/о +29.5 +20.1 57 +36 +36 очень
душно
1007.5 941.4
04 9.09 СЗ 3 13 км н/о +30.3 +20.3 55 +37 +37 очень
душно
1007.1 941.2
05 9.09 С 4 20 км н/о +31.9 +19.9 49 +38 +38 очень
душно
1006.6 941.0
06 9.09 С 4 16 км н/о +30.9 +21.1 56 +38 +38 очень
душно
1006.8 941.0
07 9.09 С 4 16 км н/о +30.4 +19.8 53 +37 +37 очень
душно
1007.3 941.4
08 9.09 С 4 18 км н/о +29.3 +19.9 57 +36 +36 очень
душно
1008.1 941.9
09 9.09 С 3 18 км н/о +27.3 +20.4 66 +34 +34 очень
душно
1009.2 942.5
10 9.09 СЗ 2 17 км н/о +26.4 +20.0 68 +32 +32 очень
душно
1010.8 943.8
11 9.09 С 2 20 км н/о +25.3 +20.3 74 +31 +31 очень
душно
1012.1 944.7
12 9.09 С 2 16 км н/о +24.3 +20.6 80 +30 +30 очень
душно
1012.8 945.1 +32.1
15 9.09 С 1 20 км н/о +23.3 +20.8 86 +31 +31 очень
душно
1013.3 945.4
16 9.09 В 2 20 км н/о +22.8 +20.5 87 +30 +30 очень
душно
1013.7 945.6
17 9.09 С 1 20 км н/о +22.4 +20.7 90 +29 +29 очень
душно
1013.7 945.5
18 9.09 СВ 1 20 км н/о +22.3 +20.4 89 +29 +29 очень
душно
1013.7 945.5
19 9.09 С 1 20 км н/о +21.9 +20.4 91 +28 +28 душно 1014.0 945.7
21 9.09 В 1 20 км н/о +21.3 +20.1 93 +26 +26 душно 1015.1 946.5
23 9.09 ЮЗ 2 20 км н/о +24.2 +19.9 77 +30 +30 очень
душно
1014.7 946.9
00 10.09 З 2 16 км н/о +26.2 +20.1 69 +32 +32 очень
душно
1014.2 946.9 +21.3
01 10.09 З 3 11 км н/о +28.4 +20.9 64 +36 +36 очень
душно
1013.2 946.5
02 10.09 З 2 20 км н/о +30.3 +21.1 58 +38 +38 очень
душно
1012.3 946.0
03 10.09 ЮЗ 2 16 км н/о +30.5 +20.7 56 +38 +38 очень
душно
1011.6 945.4
04 10.09 З 3 16 км н/о +32.6 +19.8 47 +39 +39 очень
душно
1010.3 944.6
05 10.09 З 3 17 км н/о +32.5 +19.4 46 +38 +38 очень
душно
1009.6 944.0
06 10.09 С 4 18 км н/о +32.6 +19.8 47 +39 +39 очень
душно
1009.4 943.8
07 10.09 С 4 11 км н/о +31.2 +19.9 51 +37 +37 очень
душно
1010.0 944.1
08 10.09 С 4 20 км н/о +29.8 +21.2 60 +37 +37 очень
душно
1010.8 944.5
09 10.09 С 3 16 км н/о +28.2 +21.3 66 +36 +36 очень
душно
1011.7 945.0
10 10.09 С 3 14 км н/о +26.8 +21.1 71 +34 +34 очень
душно
1013.0 945.9
11 10.09 С 2 20 км н/о +26.3 +21.3 74 +33 +33 очень
душно
1014.0 946.7
12 10.09 С 2 16 км н/о +26.1 +21.5 76 +33 +33 очень
душно
1014.7 947.3 +33.7
13 10.09 ЮЗ 2 13 км н/о +25.2 +21.5 80 +32 +32 очень
душно
1014.9 947.3
15 10.09 С 1 20 км н/о +24.3 +21.8 86 +31 +31 очень
душно
1015.1 947.3
16 10.09 ЮЗ 2 20 км н/о +24.2 +21.5 85 +31 +31 очень
душно
1014.6 946.8
17 10.09 штиль 0 20 км н/о +23.9 +21.4 86 +30 +30 очень
душно
1014.1 946.3
18 10.09 ЮВ 1 14 км н/о +23.7 +21.6 88 +30 +30 очень
душно
1013.8 945.9
19 10.09 В 1 15 км н/о +23.0 +21.1 89 +31 +31 очень
душно
1013.8 945.8
20 10.09 СВ 1 17 км в посл. час дождь н/о +23.1 +21.4 90 +31 +31 очень
душно
1013.7 945.7
22 10.09 В 1 13 км н/о +23.5 +20.8 85 +29 +29 душно 1013.8 945.9
23 10.09 Ю 1 14 км н/о +25.3 +21.4 79 +32 +32 очень
душно
1013.3 945.8
00 11.09 Ю 2 16 км {дождь} н/о +28.3 +21.1 65 +36 +36 очень
душно
1011.8 945.1 +22.5 0.0
01 11.09 Ю 7 13 км н/о +30.6 +20.0 53 +37 +37 очень
душно
1010.4 944.3
02 11.09 Ю 6 20 км н/о +30.8 +20.4 54 +38 +38 очень
душно
1009.6 943.6
03 11.09 Ю 5 16 км н/о +32.6 +19.8 47 +39 +39 очень
душно
1007.9 942.4
04 11.09 СЗ 7 20 км слаб. дождь н/о +27.6 +22.3 73 +36 +36 очень
душно
1009.0 942.4
05 11.09 СЗ 2 18 км слаб. дождь н/о +25.9 +24.0 89 +36 +36 очень
душно
1009.9 942.8
06 11.09 ЮЗ 2 16 км в посл. час дождь н/о +26.8 +22.6 78 +35 +35 очень
душно
1009.3 942.5 0.5
07 11.09 З 2 20 км слаб. дождь н/о +26.0 +23.1 84 +35 +35 очень
душно
1009.5 942.5
08 11.09 СЗ 3 9000 м слаб. дождь н/о +24.0 +23.3 96 +32 +32 очень
душно
1010.5 942.9
09 11.09 СЗ 2 11 км слаб. дождь н/о +23.2 +22.7 97 +32 +32 очень
душно
1010.3 942.5
10 11.09 СЗ 1 14 км в посл. час дождь н/о +23.4 +22.6 95 +32 +32 очень
душно
1011.1 943.3
11 11.09 С 4 7000 м слаб. дождь н/о +21.5 +21.0 97 +27 +27 душно 1012.2 943.9
12 11.09 СЗ 3 12 км в посл. час дождь н/о +21.8 +20.8 94 +28 +28 душно 1012.5 944.2 +33.1 4
13 11.09 С 2 19 км в посл. час дождь н/о +21.6 +19.9 90 +27 +27 душно 1012.7 944.4
14 11.09 С 4 16 км н/о +21.2 +19.0 87 +26 +26 душно 1012.7 944.3
15 11.09 СЗ 4 17 км {дождь} н/о +21.0 +18.2 84 +26 +26 душно 1012.6 944.1
16 11.09 С 2 20 км н/о +20.9 +18.1 84 +26 +26 душно 1012.5 944.0
17 11.09 С 4 20 км н/о +20.6 +18.0 85 +25 +25 комфорт 1012.5 943.9
18 11.09 С 3 20 км {дождь} н/о +20.5 +17.5 83 +24 +24 комфорт 1012.5 943.9 0.0
19 11.09 С 4 11 км н/о +20.0 +17.0 83 +23 +23 комфорт 1013.0 944.2
20 11.09 СЗ 4 20 км н/о +19.4 +17.0 86 +21 +21 комфорт 1013.5 944.6
23 11.09 С 5 20 км н/о +19.7 +14.3 71 +21 +21 комфорт 1015.3 946.3
00 12.09 С 4 20 км н/о +22.3 +14.4 61 +26 +26 жарко 1014.6 946.3 +18.8 0.0
01 12.09 С 2 20 км н/о +22.6 +13.7 57 +26 +26 жарко 1014.1 945.9
02 12.09 СЗ 3 18 км н/о +23.3 +14.3 57 +27 +27 душно 1013.6 945.6
03 12.09 С 4 15 км н/о +24.9 +12.8 47 +27 +27 жарко 1012.9 945.4
04 12.09 С 3 15 км н/о +24.5 +12.5 47 +26 +26 жарко 1012.4 944.8
05 12.09 С 4 12 км н/о +24.5 +12.5 47 +26 +26 жарко 1011.9 944.3
06 12.09 С 4 17 км н/о +23.9 +13.2 51 +26 +26 жарко 1011.9 944.2
07 12.09 С 4 17 км н/о +23.7 +13.3 52 +26 +26 жарко 1012.2 944.4
08 12.09 С 4 17 км н/о +22.6 +13.4 56 +26 +26 жарко 1012.8 944.7
09 12.09 С 4 19 км н/о +21.1 +13.6 62 +24 +24 комфорт 1013.6 945.1
10 12.09 СЗ 4 17 км н/о +20.2 +12.9 63 +22 +22 комфорт 1014.8 946.0
11 12.09 СЗ 3 16 км н/о +19.6 +12.6 64 +21 +21 комфорт 1015.6 946.6
12 12.09 СЗ 2 20 км н/о +19.3 +12.8 66 +21 +21 комфорт 1015.6 946.5 +25.8
13 12.09 С 1 20 км н/о +19.0 +13.2 69 +21 +21 комфорт 1016.0 946.8
15 12.09 Ю 1 20 км н/о +18.4 +13.7 74 +20 +20 1015.6 946.2
16 12.09 Ю 1 20 км н/о +18.4 +13.7 74 +21 +21 комфорт 1015.2 945.9
18 12.09 ЮВ 1 20 км н/о +17.8 +14.3 80 +19 +19 1015.0 945.5
19 12.09 Ю 1 20 км н/о +17.6 +14.1 80 +19 +19 1015.0 945.5
20 12.09 ЮЗ 1 20 км н/о +17.0 +14.7 86 +19 +19 1015.5 945.8
21 12.09 В 1 20 км н/о +17.2 +14.7 85 +19 +19 1016.0 946.3
22 12.09 З 2 20 км н/о +17.4 +14.7 84 +18 +18 1015.7 946.1
23 12.09 З 2 20 км н/о +17.8 +14.5 81 +19 +19 1016.3 946.7
01 13.09 З 2 20 км н/о +18.6 +14.5 77 +20 +20 1016.2 946.9
02 13.09 СЗ 2 20 км н/о +18.9 +15.0 78 +21 +21 комфорт 1015.8 946.6
04 13.09 Ю 2 20 км н/о +19.7 +15.2 75 +23 +23 комфорт 1015.0 946.0
05 13.09 ЮВ 1 20 км н/о +20.4 +15.0 71 +25 +25 комфорт 1014.4 945.7
06 13.09 СЗ 1 20 км н/о +20.3 +14.9 71 +24 +24 комфорт 1014.3 945.5
08 13.09 СЗ 1 20 км н/о +21.4 +15.5 69 +25 +25 комфорт 1014.3 945.8
09 13.09 З 1 20 км н/о +20.8 +15.1 70 +25 +25 комфорт 1014.2 945.6
10 13.09 СВ 2 20 км н/о +20.4 +15.8 75 +24 +24 комфорт 1014.7 945.9
11 13.09 С 1 20 км н/о +20.1 +15.5 75 +24 +24 комфорт 1015.4 946.5
12 13.09 СЗ 1 20 км н/о +20.0 +15.7 76 +24 +24 комфорт 1016.1 947.1 +21.8
13 13.09 СЗ 1 20 км н/о +19.5 +15.8 79 +23 +23 комфорт 1016.1 947.0
14 13.09 С 1 20 км в посл. час дождь н/о +19.2 +15.7 80 +22 +22 комфорт 1016.1 946.9
16 13.09 ЮЗ 1 20 км н/о +18.4 +15.3 82 +21 +21 комфорт 1015.9 946.5
17 13.09 С 1 20 км н/о +18.4 +15.1 81 +20 +20 1015.7 946.3
18 13.09 В 1 20 км {дождь} н/о +18.3 +15.2 82 +20 +20 1015.6 946.2 0.0
19 13.09 Ю 1 20 км н/о +17.8 +15.1 84 +19 +19 1015.8 946.3
21 13.09 В 2 20 км н/о +15.8 +12.6 81 +16 +16 1017.0 946.9
00 14.09 З 3 15 км н/о +20.3 +12.5 61 +23 +23 комфорт 1014.9 946.1 +15.8 0.0
01 14.09 З 2 14 км н/о +22.8 +13.6 56 +26 +26 жарко 1013.3 945.2
02 14.09 СЗ 4 15 км н/о +24.7 +13.6 50 +27 +27 жарко 1012.2 944.7
03 14.09 З 2 12 км н/о +25.7 +13.6 47 +28 +28 жарко 1010.9 943.7
04 14.09 СЗ 3 16 км н/о +26.2 +13.7 46 +28 +28 жарко 1009.9 942.9
05 14.09 З 3 11 км н/о +28.0 +14.6 44 +30 +30 жарко 1009.0 942.4
06 14.09 СЗ 3 15 км н/о +28.0 +13.5 41 +30 +30 жарко 1008.2 941.7
07 14.09 СЗ 2 19 км н/о +27.3 +13.6 43 +29 +29 жарко 1008.2 941.5
08 14.09 СЗ 4 16 км н/о +26.3 +14.4 48 +29 +29 жарко 1008.8 941.9
09 14.09 С 3 18 км н/о +24.3 +16.1 60 +28 +28 душно 1009.8 942.3
10 14.09 С 2 16 км н/о +23.6 +16.2 63 +27 +27 жарко 1010.7 943.0
11 14.09 З 1 17 км н/о +22.9 +16.0 65 +27 +27 душно 1011.4 943.5
12 14.09 Ю 1 17 км н/о +22.1 +16.2 69 +26 +26 душно 1011.9 943.8 +28.5
13 14.09 ЮЗ 2 11 км н/о +21.5 +15.8 70 +25 +25 комфорт 1012.0 943.7
14 14.09 Ю 1 17 км н/о +21.3 +15.8 71 +25 +25 комфорт 1011.9 943.6
15 14.09 С 2 20 км н/о +21.3 +16.3 73 +25 +25 комфорт 1011.8 943.5
16 14.09 С 1 18 км н/о +21.0 +16.0 73 +26 +26 душно 1011.6 943.2
17 14.09 С 1 18 км н/о +20.8 +15.8 73 +25 +25 комфорт 1011.5 943.1
18 14.09 С 1 20 км н/о +20.5 +15.9 75 +25 +25 комфорт 1012.0 943.4
19 14.09 ЮВ 2 20 км н/о +20.1 +16.2 78 +24 +24 комфорт 1012.2 943.5
20 14.09 Ю 2 20 км н/о +19.8 +16.1 79 +23 +23 комфорт 1011.9 943.2
21 14.09 С 1 20 км н/о +20.0 +16.3 79 +24 +24 комфорт 1011.7 943.0
22 14.09 С 1 20 км н/о +20.4 +15.8 75 +24 +24 комфорт 1011.6 943.0
23 14.09 З 2 16 км н/о +21.4 +15.9 71 +25 +25 комфорт 1011.2 942.9
00 15.09 З 2 15 км н/о +22.9 +16.5 67 +28 +28 душно 1010.7 942.8 +19.8
01 15.09 ЮЗ 3 15 км н/о +24.1 +16.9 64 +28 +28 душно 1009.6 942.1
02 15.09 З 2 15 км н/о +26.2 +16.7 56 +30 +30 душно 1008.2 941.3
03 15.09 З 4 17 км н/о +29.0 +16.2 46 +32 +32 душно 1006.6 940.4
04 15.09 В 3 16 км н/о +28.3 +15.9 47 +31 +31 душно 1005.8 939.5
05 15.09 СЗ 2 16 км н/о +29.6 +15.7 43 +32 +32 душно 1004.7 938.8
06 15.09 СВ 3 20 км н/о +28.6 +16.2 47 +32 +32 душно 1004.6 938.5
07 15.09 СВ 3 18 км н/о +28.8 +15.0 43 +31 +31 жарко 1004.6 938.5
08 15.09 С 4 16 км н/о +27.6 +15.3 47 +30 +30 жарко 1005.2 938.8
09 15.09 С 2 18 км н/о +25.8 +14.9 51 +29 +29 душно 1005.8 939.0
10 15.09 СВ 2 20 км н/о +25.1 +14.9 53 +28 +28 жарко 1006.4 939.4
11 15.09 СВ 2 14 км н/о +22.9 +15.7 64 +27 +27 душно 1007.8 940.1
12 15.09 С 2 13 км н/о +21.8 +15.9 69 +25 +25 комфорт 1008.2 940.2 +30.0
13 15.09 СВ 2 17 км н/о +20.9 +15.9 73 +25 +25 комфорт 1008.1 939.9
14 15.09 СВ 1 20 км н/о +20.4 +16.0 76 +24 +24 комфорт 1007.7 939.4
15 15.09 С 2 20 км н/о +19.6 +16.5 82 +23 +23 комфорт 1007.6 939.1
16 15.09 С 2 20 км н/о +19.1 +16.3 84 +21 +21 комфорт 1007.2 938.6
17 15.09 С 2 15 км н/о +18.8 +16.4 86 +21 +21 комфорт 1007.3 938.6
18 15.09 С 1 13 км н/о +18.5 +16.3 87 +20 +20 1007.0 938.3
19 15.09 СВ 1 19 км н/о +18.8 +16.4 86 +21 +21 комфорт 1006.4 937.8
21 15.09 С 2 20 км н/о +18.9 +16.5 86 +21 +21 комфорт 1006.1 937.5

 

Местоположение метеостанции Мацумото (Япония): широта 36.25 долгота 137.96 высота над уровнем моря 611 м.

В архиве по умолчанию представлена погода в Мацумото за последнюю неделю. Архивные данные за месяц целиком и за предыдущие месяцы, начиная с января 2011 года, Вы можете получить, выбрав интересующий диапазон дат из раскрывающегося списка и нажав кнопку "Ввод!".


*Определитесь, кто Вы:
робот инопланетянин человек

Внимание! Время в таблицах - всемирное. Для получения местного времени необходимо прибавить поправку, которая равна 9 ч.

Смотрите также архив погоды в соседних городах и на ближайших метеорологических станциях:

Погода в Суве (Япония) (26 км)
Погода в Нагано (Япония) (51 км)
Погода в Каруидзаве (Япония) (54 км)
Погода в Такаяме (Япония) (65 км)
Погода в Ииде (Япония) (82 км)
Погода в Кофу (Япония) (84 км)
Погода в Тояме (Япония) (86 км)
Погода в Такаде (Япония) (98 км)
Погода в Маебаши (Япония) (100 км)
Погода в Фушики (Япония) (102 км)

Пояснения к столбцам:

Ветер - указаны скорость ветра в м/с - средняя за 10 мин, порывы в срок и между сроками (в фигурных скобках) и направление, откуда дует ветер: С - северный, СВ - северо-восточный, В - восточный, ЮВ - юго-восточный, Ю - южный, ЮЗ - юго-западный, З - западный, СЗ - северо-западный.
Видимость - горизонтальная дальность видимости в метрах или километрах. При видимости от 1 до 10 км при отсутствии осадков обычно наблюдается дымка, при ухудшении видимости до 1 км и менее - туман. В сухую погоду видимость может ухудшаться дымом, пылью или мглою.
Явления - указаны атмосферные явления, наблюдавшиеся в срок или в последний час перед сроком; фигурными скобками обозначены явления, наблюдавшиеся между сроками (за 1-3 часа до срока); квадратными скобками обозначены град или гололедные отложения с указанием их диаметра в мм.
Облачность - указаны через наклонную черту общая и нижняя облачность в баллах и высота нижней границы облаков в метрах; квадратными скобками обозначены формы облаков: Ci - перистые, Cs - перисто-слоистые, Cc - перисто-кучевые, Ac - высококучевые, As - высокослоистые, Sc - слоисто-кучевые, Ns - слоисто-дождевые, Cu - кучевые, Cb - кучево-дождевые. Подробнее классификацию облаков см. в Атласе облаков (PDF).
T - Температура воздуха - температура, измеренная на высоте 2 м над землей.
Td - Температура точки росы - температура, при понижении до которой содержащийся в воздухе водяной пар достигнет насыщения.
f - Относительная влажность воздуха - влажноcть воздуха, измеренная на высоте 2 м над землей.
Te - Эффективная температура - температура, которую ощущает одетый по сезону человек в тени. Характеристика душности погоды. При расчете учитывается влияние влажности воздуха и скорости ветра на теплоощущения человека.
Tes - Эффективная температура на солнце - температура, которую ощущает человек, с поправкой на солнечный нагрев. Характеристика знойности погоды. Зависит от высоты солнца над горизонтом, облачности и скорости ветра. Ночью, в пасмурную погоду, а также при ветре 12 м/с и более поправка равна нулю.
P - Атмосферное давление - приведенное к уровню моря атмосферное давление.
Po - Атмосферное давление - измеренное на уровне метеостанции атмосферное давление.
Tmin - Минимальная температура - минимум температуры воздуха на высоте 2 м над землей.
Tmax - Максимальная температура - максимум температуры воздуха на высоте 2 м над землей.
R - Количество осадков - Количество выпавших осадков за период времени, мм. При наведении курсора мыши на число - период времени, за который выпало указанное количество осадков.
R24 - Количество осадков - Количество выпавших осадков за 24 часа, мм.
S - Снежный покров - Высота снежного покрова, см. При наведении курсора мыши на число - состояние снежного покрова и степень покрытия местности в баллах.